South Hill, VA

10:51 AM EST on December 14, 2019 (GMT -0500)
Mecklenburg-Brunswick Regional

Weather History for KAVC - September, 2019

Change the Weather History Date:

Friday, September 20, 2019

  Actual Average (KEMV) Record (KEMV)
Temperature  
Mean Temperature 60 °F -  
Max Temperature 78 °F 81 °F 91 °F (1983)
Min Temperature 44 °F 58 °F 45 °F (2019)
Degree Days  
Heating Degree Days 4    
Growing Degree Days 10 (Base 50)    
Moisture  
Dew Point 51 °F    
Average Humidity 75    
Maximum Humidity 100    
Minimum Humidity 35    
Precipitation  
Precipitation 0.00 in - - ()
Sea Level Pressure  
Sea Level Pressure 30.35 in    
Wind  
Wind Speed 1 mph (SW)    
Max Wind Speed 9 mph    
Max Gust Speed -    
Averages and records for this station are not official NWS values.
T = Trace of Precipitation, MM = Missing Value Source: NWS Daily Summary

Daily Weather History Graph

Daily Weather History Graph

Search for Another Location

Airport or City:

Astronomy

Sep. 20, 2019 Rise Set
Actual Time 6:58 AM EDT 7:12 PM EDT
Civil Twilight 6:32 AM EDT 7:38 PM EDT
Nautical Twilight 6:02 AM EDT 8:08 PM EDT
Astronomical Twilight 5:31 AM EDT 8:39 PM EDT
Moon 11:10 PM EDT (9/20) 12:52 PM EDT (9/20)
Length of Visible Light 13h 05m
Length of Day
12h 14m
Waning Gibbous, 65% of the Moon is Illuminated
Sep 20
Waning Gibbous
Sep 21
Last Quarter
Sep 28
New
Oct 5
First Quarter
Oct 13
Full

Hourly Weather History & Observations

Time (EDT) Temp. Dew Point Humidity Pressure Visibility Wind Dir Wind Speed Gust Speed Precip Events Conditions
12:15 AM 52.5 °F 51.8 °F 97% 30.35 in - Calm Calm - N/A   Unknown
12:35 AM 51.4 °F 51.4 °F 100% 30.35 in - Calm Calm - N/A   Unknown
12:55 AM 49.1 °F 49.1 °F 100% 30.35 in - Calm Calm - N/A   Unknown
1:15 AM 51.1 °F 51.1 °F 100% 30.36 in - Calm Calm - N/A   Unknown
1:35 AM 49.5 °F 49.5 °F 100% 30.36 in - Calm Calm - N/A   Unknown
1:55 AM 50.2 °F 50.2 °F 100% 30.36 in - Calm Calm - N/A   Unknown
2:15 AM 48.9 °F 48.9 °F 100% 30.36 in - Calm Calm - N/A   Unknown
2:55 AM 47.3 °F 47.3 °F 100% 30.35 in - Calm Calm - N/A   Unknown
3:15 AM 46.9 °F 46.9 °F 100% 30.35 in - Calm Calm - N/A   Unknown
3:35 AM 47.1 °F 47.1 °F 100% 30.35 in - Calm Calm - N/A   Unknown
3:55 AM 47.8 °F 47.8 °F 100% 30.35 in - Calm Calm - N/A   Unknown
4:15 AM 46.0 °F 46.0 °F 100% 30.36 in - Calm Calm - N/A   Unknown
4:35 AM 45.9 °F 45.9 °F 100% 30.36 in - Calm Calm - N/A   Unknown
4:55 AM 47.1 °F 47.1 °F 100% 30.36 in - Calm Calm - N/A   Unknown
5:15 AM 46.0 °F 46.0 °F 100% 30.37 in - Calm Calm - N/A   Unknown
5:35 AM 45.9 °F 45.9 °F 100% 30.37 in - Calm Calm - N/A   Unknown
5:55 AM 45.0 °F 45.0 °F 100% 30.37 in - Calm Calm - N/A   Unknown
6:15 AM 45.3 °F 45.3 °F 100% 30.38 in - Calm Calm - N/A   Unknown
6:35 AM 45.0 °F 45.0 °F 100% 30.38 in - Calm Calm - N/A   Unknown
7:15 AM 44.1 °F 44.1 °F 100% 30.39 in - Calm Calm - N/A   Unknown
7:35 AM 44.8 °F 44.8 °F 100% 30.39 in - Calm Calm - N/A   Unknown
8:15 AM 51.8 °F 51.8 °F 100% 30.40 in - Calm Calm - N/A   Unknown
8:35 AM 53.8 °F 53.8 °F 100% 30.41 in - Calm Calm - N/A   Unknown
8:55 AM 57.7 °F 57.6 °F 99% 30.41 in - Calm Calm - N/A   Unknown
9:15 AM 60.8 °F 57.7 °F 90% 30.41 in - Calm Calm - N/A   Unknown
9:35 AM 62.8 °F 56.3 °F 79% 30.41 in - Calm Calm - N/A   Clear
9:55 AM 64.4 °F 55.4 °F 73% 30.41 in - SW 3.5 mph - N/A   Clear
10:15 AM 65.7 °F 54.0 °F 66% 30.40 in - WSW 3.5 mph - N/A   Clear
10:35 AM 66.0 °F 53.6 °F 64% 30.40 in - SW 3.5 mph - N/A   Clear
10:55 AM 67.6 °F 52.9 °F 59% 30.40 in - Calm Calm - N/A   Clear
11:15 AM 67.5 °F 51.6 °F 57% 30.40 in - Calm Calm - N/A   Clear
11:35 AM 70.0 °F 52.0 °F 53% 30.39 in - North 4.6 mph - N/A   Clear
11:55 AM 69.1 °F 51.6 °F 54% 30.39 in - Calm Calm - N/A   Clear
12:15 PM 72.0 °F 52.0 °F 49% 30.38 in - SSW 5.8 mph - N/A   Clear
12:35 PM 71.2 °F 51.6 °F 50% 30.38 in - WSW 3.5 mph - N/A   Clear
12:55 PM 72.7 °F 52.0 °F 48% 30.37 in - Calm Calm - N/A   Clear
1:15 PM 72.7 °F 51.3 °F 47% 30.36 in - North 3.5 mph - N/A   Clear
1:35 PM 73.8 °F 51.1 °F 45% 30.35 in - SSE 3.5 mph - N/A   Clear
1:55 PM 74.7 °F 50.7 °F 43% 30.34 in - Calm Calm - N/A   Clear
2:15 PM 75.4 °F 51.3 °F 43% 30.34 in - Calm Calm - N/A   Clear
2:35 PM 75.7 °F 50.9 °F 42% 30.32 in - Calm Calm - N/A   Clear
2:55 PM 76.6 °F 50.5 °F 40% 30.31 in - SSW 9.2 mph - N/A   Clear
3:15 PM 76.3 °F 49.1 °F 38% 30.30 in - Calm Calm - N/A   Clear
3:35 PM 76.5 °F 50.0 °F 39% 30.30 in - Calm Calm - N/A   Clear
3:55 PM 77.0 °F 49.1 °F 37% 30.30 in - SSW 8.1 mph - N/A   Clear
4:15 PM 77.4 °F 49.1 °F 37% 30.29 in - SSW 8.1 mph - N/A   Clear
4:55 PM 77.5 °F 50.5 °F 39% 30.29 in - SW 3.5 mph - N/A   Clear
5:15 PM 77.4 °F 48.9 °F 37% 30.30 in - SW 6.9 mph - N/A   Clear
5:35 PM 76.3 °F 46.6 °F 35% 30.30 in - WSW 5.8 mph - N/A   Clear
5:55 PM 76.3 °F 46.9 °F 35% 30.30 in - West 3.5 mph - N/A   Clear
6:15 PM 75.6 °F 48.2 °F 38% 30.30 in - Calm Calm - N/A   Clear
6:35 PM 75.0 °F 48.7 °F 39% 30.30 in - Calm Calm - N/A   Clear
6:55 PM 71.2 °F 52.9 °F 52% 30.30 in - Calm Calm - N/A   Clear
7:15 PM 66.2 °F 54.3 °F 65% 30.31 in - Calm Calm - N/A   Clear
7:35 PM 63.5 °F 54.9 °F 73% 30.31 in - Calm Calm - N/A   Clear
7:55 PM 60.6 °F 55.2 °F 82% 30.31 in - Calm Calm - N/A   Clear
8:15 PM 60.8 °F 54.9 °F 81% 30.31 in - SSE 3.5 mph - N/A   Clear
8:35 PM 62.2 °F 54.9 °F 77% 30.32 in - Calm Calm - N/A   Clear
8:55 PM 60.4 °F 54.9 °F 82% 30.32 in - Calm Calm - N/A   Clear
9:15 PM 60.3 °F 55.4 °F 84% 30.33 in - Calm Calm - N/A   Clear
9:35 PM 59.4 °F 55.2 °F 86% 30.33 in - Calm Calm - N/A   Unknown
9:55 PM 59.9 °F 55.6 °F 86% 30.33 in - Calm Calm - N/A   Unknown
10:15 PM 58.8 °F 55.6 °F 89% 30.33 in - Calm Calm - N/A   Unknown
10:35 PM 58.3 °F 55.0 °F 89% 30.33 in - Calm Calm - N/A   Unknown
10:55 PM 57.9 °F 55.4 °F 91% 30.34 in - Calm Calm - N/A   Unknown
11:15 PM 56.3 °F 55.0 °F 96% 30.34 in - Calm Calm - N/A   Unknown
11:35 PM 57.9 °F 55.4 °F 91% 30.34 in - Calm Calm - N/A   Unknown
11:55 PM 56.1 °F 55.0 °F 96% 30.34 in - Calm Calm - N/A   Unknown